[[{"header":{"parameterUnit":"m.s-1","parameterCategory":1,"la1":30.2991,"la2":30.254,"lo1":-89.0895,"lo2":-89.0444,"dy":0.0017,"dx":0.0017,"nx":28,"ny":28,"refTime":"2023-08-01T09:00:00:Z","depth":0,"parameterNumber":2,"parameterNumberName":"U-component_of_WINDS"},"data":[0,0,0,0,0,0,0,0,0,0,0,0,0,0,0,0,0,0,0,0,0,0,0,0,0,0,0,0,0,0,0,0,0,0,0,0,0,0,0,0,0,0,0,0,0,0,0,0,0,0,0,0,0,0,0,0,0,0,1.8092,1.8094,0,1.8233,1.8234,1.8236,1.8269,1.8268,1.8267,1.8266,1.8408,1.8413,1.8417,0,0,0,0,0,0,0,0,0,0,0,0,0,1.7851,1.7856,1.8092,1.8094,1.8096,1.8232,1.8234,1.8236,1.8269,1.8268,1.8267,1.8266,1.8407,1.8412,1.8418,0,0,0,0,0,0,0,0,0,0,0,0,0,1.797,1.7857,1.8092,1.8129,1.8133,1.8232,1.8234,1.8237,1.8269,1.8268,1.8267,1.8265,1.8405,1.8412,1.8418,1.849,0,0,1.844,1.8443,0,0,0,0,0,0,0,0,1.7963,1.7979,1.8122,1.8126,1.8132,1.8232,1.8201,1.8322,1.827,1.8218,1.8266,1.8264,1.8351,1.8362,1.8391,1.8497,1.8503,1.844,1.8445,1.8448,1.845,0,0,0,0,0,0,0,1.7955,1.7973,1.8148,1.8124,1.813,1.8138,1.8153,1.8224,1.829,1.8222,1.8225,1.8241,1.8353,1.8384,1.8395,1.8505,1.844,1.8446,1.8451,1.8453,1.8675,1.8677,0,0,0,0,0,0,1.7941,1.7966,1.8143,1.8152,1.8042,1.8143,1.816,1.8201,1.829,1.8302,1.8242,1.8242,1.8373,1.8387,1.84,1.8489,1.8448,1.8454,1.8458,1.8674,1.8676,1.8678,0,0,0,0,0,0,1.7935,1.7956,1.8138,1.806,1.8084,1.8149,1.8194,1.8205,1.8236,1.8305,1.8317,1.8262,1.8373,1.839,1.8467,1.8494,1.8457,1.8464,1.8672,1.8674,1.8677,1.8667,0,0,0,0,0,0,1.7928,1.7954,1.7982,1.806,1.8088,1.8203,1.8196,1.8208,1.8248,1.825,1.8327,1.8338,1.8373,1.8457,1.8474,1.8503,1.8469,1.867,1.8673,1.8676,1.8665,1.8669,1.8672,0,0,0,0,0,1.792,1.7974,1.7983,1.8005,1.8124,1.8205,1.822,1.8259,1.825,1.8279,1.8323,1.8336,1.8489,1.8464,1.8484,1.8516,1.8668,1.8672,1.8676,1.8664,1.8668,1.8672,0,0,0,0,0,0,1.7896,1.7985,1.7996,1.8077,1.8133,1.821,1.8247,1.8263,1.8322,1.8321,1.8367,1.8384,1.8458,1.8495,1.8466,1.8589,1.8578,1.8586,1.8562,1.8567,1.8571,1.8559,1.8475,0,0,0,0,0,1.7901,1.7959,1.8033,1.8097,1.8125,1.8181,1.8218,1.8243,1.8303,1.8326,1.8376,1.8433,1.8494,1.8533,1.8593,1.8672,1.8688,1.8703,1.8706,1.8709,1.8715,1.8759,1.8766,1.869,1.869,1.869,0,0,1.791,1.7966,1.8,1.8094,1.814,1.8199,1.8201,1.8263,1.8307,1.8336,1.8411,1.845,1.8516,1.8594,1.8631,1.8628,1.874,1.8714,1.8715,1.872,1.8763,1.877,1.8777,1.8693,1.8692,1.8692,0,0,1.7957,1.8005,1.8064,1.8111,1.8181,1.8218,1.8232,1.8307,1.8334,1.8411,1.8434,1.8486,1.8591,1.8637,1.8674,1.8739,1.8752,1.8757,1.8775,1.8817,1.8823,1.8828,1.8851,1.8858,1.8763,1.8763,1.8763,0,1.7959,1.805,1.8092,1.8153,1.8194,1.8224,1.8283,1.8326,1.8412,1.8439,1.8434,1.8565,1.8612,1.8701,1.8717,1.8746,1.8763,1.8748,1.8819,1.8825,1.883,1.8852,1.886,1.8763,1.8763,1.8763,1.8763,0,1.8049,1.8111,1.815,1.8233,1.8278,1.8338,1.8389,1.8429,1.8451,1.8489,1.8566,1.8624,1.8696,1.8719,1.8741,1.8811,1.8807,1.881,1.8799,1.8837,1.8858,1.8867,1.8763,1.8763,1.8763,1.8763,0,0,1.8083,1.819,1.8203,1.8241,1.8321,1.837,1.8431,1.8502,1.8535,1.8594,1.8646,1.8734,1.8737,1.8779,1.8806,1.8844,1.889,1.8842,1.8844,1.8848,1.897,1.8967,1.8976,1.8901,1.8902,1.8904,1.8964,0,1.8139,1.825,1.829,1.8381,1.8438,1.8468,1.8521,1.8576,1.8613,1.8667,1.8707,1.8768,1.8769,1.8794,1.8832,1.8876,1.8915,1.8873,1.8948,1.895,1.8929,1.8987,1.8983,1.9038,1.8973,1.8974,1.8976,0,1.8219,1.8279,1.8375,1.8449,1.8474,1.8521,1.8589,1.8641,1.8703,1.8728,1.8775,1.88,1.8865,1.8851,1.894,1.8911,1.8944,1.897,1.8974,1.8981,1.8964,1.8994,1.9056,1.9063,1.8989,1.8988,1.8987,0,1.8233,1.8338,1.841,1.8441,1.8528,1.8561,1.8598,1.866,1.87,1.8759,1.8786,1.8852,1.8887,1.8938,1.898,1.8967,1.9065,1.9055,1.9086,1.9085,1.9104,1.9102,1.9171,1.9128,1.9128,1.9128,1.9128,0,1.829,1.8348,1.8417,1.8461,1.8526,1.8572,1.8635,1.8674,1.8729,1.878,1.881,1.8857,1.8911,1.8965,1.8999,1.9067,1.9083,1.9104,1.9112,1.9101,1.9098,1.9122,1.9119,1.913,1.913,1.9129,1.9129,0,1.8316,1.8365,1.8445,1.8521,1.8542,1.8586,1.8651,1.8695,1.8733,1.8798,1.8816,1.8876,1.8942,1.8989,1.9074,1.9096,1.9169,1.9178,1.9148,1.9152,1.918,1.9176,1.9265,1.9279,1.9228,1.9228,1.9228,0,1.8349,1.8394,1.8476,1.8512,1.855,1.8609,1.865,1.8697,1.8739,1.8814,1.8848,1.8916,1.8972,1.9075,1.9126,1.9191,1.9201,1.9228,1.9211,1.9198,1.92,1.9196,1.92,1.9229,1.923,1.923,1.923,0,1.8401,1.8423,1.8482,1.8549,1.8597,1.8652,1.8707,1.8736,1.8792,1.8838,1.8905,1.8949,1.9036,1.9102,1.9172,1.9211,1.923,1.9235,1.9246,1.9234,1.9214,1.9224,1.9153,1.9233,1.9233,1.9232,1.9232,1.9232,1.8431,1.8472,1.8536,1.86,1.8647,1.8698,1.8742,1.8787,1.8844,1.8918,1.8943,1.9013,1.9074,1.917,1.9209,1.9264,1.9263,1.9279,1.9282,1.9285,1.9284,1.9207,1.9277,1.9277,1.9277,1.9277,1.9277,0,1.8484,1.8526,1.8585,1.8662,1.8712,1.8727,1.8789,1.883,1.8891,1.8947,1.9002,1.908,1.9145,1.9201,1.9268,1.9302,1.9312,1.9317,1.9315,1.9323,1.9281,1.9265,1.9308,1.9308,1.9308,1.9308,1.9308,1.9308,1.8517,1.8587,1.8617,1.8711,1.8753,1.8822,1.8856,1.8903,1.8948,1.9034,1.9088,1.9125,1.9181,1.9253,1.9313,1.9328,1.935,1.9354,1.937,1.933,1.9326,1.9323,1.9308,1.9359,1.9359,1.9408,1.9408,1.9408]},{"header":{"parameterUnit":"m.s-1","parameterCategory":1,"la1":30.2991,"la2":30.254,"lo1":-89.0895,"lo2":-89.0444,"dy":0.0017,"dx":0.0017,"nx":28,"ny":28,"refTime":"2023-08-01T09:00:00:Z","depth":0,"parameterNumber":3,"parameterNumberName":"V-component_of_WINDS"},"data":[0,0,0,0,0,0,0,0,0,0,0,0,0,0,0,0,0,0,0,0,0,0,0,0,0,0,0,0,0,0,0,0,0,0,0,0,0,0,0,0,0,0,0,0,0,0,0,0,0,0,0,0,0,0,0,0,0,0,1.7681,1.768,0,1.7604,1.7603,1.7602,1.7532,1.7531,1.753,1.753,1.7446,1.7445,1.7443,0,0,0,0,0,0,0,0,0,0,0,0,0,1.7762,1.7761,1.7681,1.768,1.7679,1.7604,1.7603,1.7602,1.7532,1.7531,1.753,1.7529,1.7447,1.7445,1.7443,0,0,0,0,0,0,0,0,0,0,0,0,0,1.771,1.7761,1.7681,1.7635,1.763,1.7604,1.7603,1.7602,1.7532,1.7531,1.753,1.7529,1.7447,1.7445,1.7443,1.7455,0,0,1.7436,1.7435,0,0,0,0,0,0,0,0,1.7713,1.7707,1.7643,1.7638,1.7633,1.7576,1.7601,1.7552,1.7533,1.7569,1.753,1.7528,1.749,1.7484,1.7473,1.7451,1.7447,1.7436,1.7435,1.7434,1.7433,0,0,0,0,0,0,0,1.7717,1.771,1.765,1.7642,1.7636,1.7617,1.7608,1.7592,1.7538,1.7566,1.7561,1.7553,1.7487,1.7475,1.747,1.7446,1.7436,1.7434,1.7433,1.7432,1.7428,1.7429,0,0,0,0,0,0,1.7728,1.7714,1.7653,1.7648,1.7671,1.7616,1.7607,1.7596,1.7538,1.7528,1.7554,1.755,1.7479,1.7473,1.7467,1.7476,1.7434,1.7432,1.7431,1.7427,1.7429,1.743,0,0,0,0,0,0,1.773,1.7724,1.7656,1.7679,1.7669,1.7616,1.7605,1.7595,1.7583,1.7529,1.7518,1.7552,1.7478,1.747,1.7458,1.7472,1.7431,1.7429,1.7426,1.7428,1.7429,1.7496,0,0,0,0,0,0,1.7733,1.7725,1.773,1.768,1.7669,1.7651,1.7606,1.7594,1.758,1.7574,1.7524,1.7514,1.7476,1.7462,1.7456,1.7469,1.7427,1.7424,1.7427,1.7429,1.7492,1.7499,1.7506,0,0,0,0,0,1.7736,1.7751,1.7731,1.7724,1.7674,1.7652,1.7645,1.7602,1.7581,1.7585,1.755,1.7516,1.7472,1.7461,1.7454,1.7466,1.7423,1.7426,1.7429,1.7489,1.7498,1.7506,0,0,0,0,0,0,1.7802,1.7744,1.772,1.772,1.7692,1.764,1.7644,1.7613,1.7589,1.7584,1.7531,1.752,1.7514,1.7489,1.7478,1.7474,1.7443,1.7444,1.7491,1.7499,1.7506,1.7512,1.7426,0,0,0,0,0,1.7817,1.7805,1.7754,1.7758,1.7745,1.7697,1.7686,1.7655,1.7623,1.761,1.7574,1.7543,1.7522,1.7509,1.7486,1.7488,1.7475,1.7492,1.7499,1.7505,1.7507,1.7504,1.7511,1.7439,1.7439,1.7439,0,0,1.7847,1.7814,1.7809,1.7771,1.7745,1.7732,1.7687,1.7676,1.7665,1.7608,1.7595,1.7568,1.7529,1.7524,1.7519,1.7502,1.7524,1.7509,1.7514,1.7512,1.7508,1.7515,1.7521,1.7441,1.744,1.744,0,0,1.7895,1.7869,1.787,1.7845,1.7807,1.7775,1.7775,1.7728,1.7708,1.7695,1.7651,1.7637,1.7602,1.7576,1.7558,1.7595,1.7562,1.7589,1.7626,1.7624,1.7629,1.7634,1.7647,1.7652,1.7591,1.7591,1.7591,0,1.7937,1.7918,1.7874,1.7865,1.7849,1.7797,1.7796,1.7774,1.773,1.7719,1.7701,1.7656,1.7626,1.7613,1.7623,1.761,1.7607,1.7595,1.7633,1.7637,1.7641,1.7652,1.7657,1.7595,1.7594,1.7594,1.7594,0,1.7971,1.7958,1.7962,1.7923,1.7907,1.7902,1.7856,1.7845,1.7815,1.7785,1.7771,1.7733,1.7702,1.7696,1.7667,1.7679,1.767,1.7643,1.761,1.7652,1.7662,1.7666,1.76,1.7599,1.7598,1.7597,0,0,1.8059,1.7995,1.7997,1.7978,1.7933,1.7921,1.7913,1.7884,1.7875,1.7846,1.7837,1.7808,1.7783,1.7763,1.773,1.7729,1.776,1.7701,1.7699,1.7713,1.7769,1.779,1.7796,1.7737,1.7738,1.7739,1.7772,0,1.8099,1.8084,1.8043,1.804,1.8027,1.7977,1.797,1.794,1.7911,1.7894,1.786,1.7841,1.7809,1.7796,1.7793,1.7757,1.777,1.7754,1.7727,1.7727,1.7738,1.7801,1.7822,1.7856,1.7776,1.7776,1.7777,0,1.8144,1.812,1.8116,1.807,1.8063,1.8058,1.8027,1.8012,1.7976,1.7955,1.7932,1.7896,1.7883,1.7853,1.7833,1.7823,1.781,1.779,1.779,1.7786,1.7754,1.7798,1.7866,1.7871,1.7782,1.7782,1.7781,0,1.8209,1.8175,1.8168,1.8153,1.8099,1.8097,1.8074,1.8037,1.8022,1.7994,1.7983,1.7955,1.7939,1.7916,1.7872,1.7855,1.7857,1.7824,1.7837,1.7838,1.784,1.784,1.7907,1.7832,1.7832,1.7832,1.7832,0,1.8258,1.8257,1.8196,1.8192,1.8188,1.8141,1.8139,1.8111,1.8078,1.8066,1.8021,1.801,1.7953,1.7935,1.79,1.7889,1.7882,1.7863,1.7853,1.7867,1.7869,1.7857,1.7853,1.7833,1.7833,1.7832,1.7832,0,1.833,1.8289,1.8278,1.8228,1.8215,1.8215,1.8172,1.8164,1.8132,1.8117,1.8111,1.806,1.8036,1.799,1.7953,1.793,1.7926,1.791,1.7939,1.7933,1.7949,1.7948,1.801,1.8015,1.7937,1.7938,1.7939,0,1.8364,1.8362,1.8313,1.8302,1.8282,1.8265,1.8249,1.8202,1.8187,1.8146,1.8143,1.8116,1.8092,1.8057,1.8015,1.7986,1.7969,1.7992,1.7964,1.7977,1.7968,1.7969,1.7968,1.7999,1.8,1.8001,1.8001,0,1.8429,1.8408,1.8389,1.8362,1.8345,1.8321,1.8294,1.8288,1.8233,1.8219,1.8195,1.8177,1.814,1.8113,1.8078,1.8052,1.8017,1.8011,1.8012,1.8026,1.8042,1.8033,1.7956,1.8009,1.8009,1.8008,1.8008,1.8007,1.8482,1.8478,1.8443,1.8422,1.8397,1.8373,1.8364,1.8331,1.8311,1.8278,1.825,1.8229,1.8191,1.8141,1.8117,1.8098,1.8081,1.8084,1.8084,1.8085,1.8091,1.8046,1.8091,1.8091,1.809,1.809,1.809,0,1.8544,1.8519,1.8501,1.8465,1.8449,1.8419,1.8388,1.8375,1.8357,1.8326,1.8304,1.8275,1.8249,1.8205,1.8175,1.8168,1.8151,1.8161,1.8161,1.8156,1.8107,1.8109,1.8175,1.8175,1.8175,1.8175,1.8175,1.8175,1.8575,1.8566,1.8542,1.852,1.8494,1.8473,1.8458,1.8435,1.841,1.8381,1.836,1.8332,1.8295,1.8261,1.8235,1.8222,1.8213,1.8229,1.8211,1.8167,1.8159,1.8151,1.8153,1.8227,1.8227,1.826,1.8261,1.8261]}]]